Flag for Romania Weather past 2 weeks in Iasi, Romania

Now
73 °F

Light rain. Clear.


Feels Like: 74 °F
Forecast: 65 / 80 °F
Wind: 7 mph from North

Location: Iasi Airport

Current Time: Jul 22, 2014 at 1:19:28 PM

Latest Report: Jul 22, 2014 at 12:30 PM


Visibility: N/A

Pressure: 29.86 "Hg

Humidity: 78%

Dew point: 66 °F

Location of IasiLocation

Historic Weather in Iasi — Graph

°F

Iasi temperature yesterday

Maximum temperature yesterday: 88 °F (at 2:30 PM)
Minimum temperature yesterday: 61 °F (at 4:00 AM)
Average temperature yesterday: 76 °F

Past Weeks' High & Low Weather Summary

 TemperatureHumidityPressure
High88 °F (Jul 7, 3:00 PM)100% (Jul 10, 5:00 AM)30.04 "Hg (Jul 10, 5:00 AM)
Low55 °F (Jul 14, 6:00 AM)33% (Jul 7, 3:00 PM)29.56 "Hg (Jul 11, 2:00 PM)
Average73 °F73%29.88 "Hg
* Reported Jul 7 12:00 Noon — Jul 22 12:00 Noon, Iasi, Weather by CustomWeather, © 2014

Note: Actual official high and low records may vary slightly from our data, if they occured in-between our weather recording intervals... More about our weather records

Advertising

Iasi weather history for previous 24 hours

 ConditionsComfort  
Time TempWeatherWind HumidityBarometerVisibility
12:00 PM
Jul 22
75 °FPassing clouds.9 mph74%29.86 "HgN/A
11:30 AM77 °FPassing clouds.7 mph74%29.86 "HgN/A
11:00 AM77 °FSunny.2 mph69%29.86 "Hg10 mi
10:30 AM77 °FSunny.2 mph74%29.86 "Hg10 mi
10:00 AM75 °FSunny.2 mph78%29.86 "Hg10 mi
9:30 AM73 °FSunny.2 mph83%29.86 "Hg10 mi
9:00 AM72 °FSunny.2 mph83%29.86 "Hg10 mi
8:30 AM72 °FSunny.2 mph83%29.83 "Hg10 mi
8:00 AM70 °FSunny.2 mph88%29.83 "Hg10 mi
7:00 AM64 °FSunny.5 mph100%29.83 "Hg10 mi
6:30 AM64 °FMild.No wind100%29.83 "Hg5 mi
5:30 AM63 °FClear.5 mph100%29.83 "Hg10 mi
4:00 AM66 °FMild.2 mph94%29.83 "HgN/A
1:00 AM72 °FClear.5 mph73%29.83 "Hg10 mi
12:00 AM72 °FClear.2 mph73%29.83 "Hg10 mi
11:00 PM
Jul 21
70 °FClear.2 mph83%29.83 "Hg10 mi
10:00 PM73 °FClear.No wind65%29.83 "Hg10 mi
9:00 PM75 °FSunny.5 mph65%29.80 "Hg10 mi
8:30 PM79 °FSunny.7 mph58%29.80 "Hg10 mi
8:00 PM81 °FSunny.9 mph54%29.80 "Hg10 mi
7:30 PM81 °FSunny.7 mph58%29.80 "Hg10 mi
7:00 PM82 °FPassing clouds.5 mph48%29.80 "HgN/A
6:30 PM82 °FSunny.7 mph45%29.80 "Hg10 mi
6:00 PM88 °FPassing clouds.5 mph38%29.80 "HgN/A
5:30 PM88 °FPassing clouds.5 mph38%29.80 "HgN/A
5:00 PM88 °FPassing clouds.7 mph40%29.80 "HgN/A
4:30 PM88 °FPassing clouds.7 mph40%29.80 "HgN/A
4:00 PM86 °FSunny.2 mph40%29.80 "Hg10 mi
3:30 PM86 °FPassing clouds.5 mph40%29.83 "HgN/A
3:00 PM88 °FSunny.2 mph43%29.83 "Hg10 mi
2:30 PM88 °FPassing clouds.5 mph38%29.83 "HgN/A
2:00 PM86 °FPassing clouds.5 mph40%29.83 "HgN/A
1:30 PM84 °FSunny.2 mph43%29.83 "Hg10 mi
1:00 PM84 °FPassing clouds.5 mph45%29.86 "HgN/A
Weather by CustomWeather, © 2014

See weather overviewHow to use our weather pages